MOLNIYA 3-41

Last updated on Tue Jun 27 2023 00:03:05 GMT+0000 (Coordinated Universal Time)

1 21706U 91065A 23176.77490572 -.00000684 00000+0 00000+0 0 9994 2 21706 64.0443 123.1950 7038905 252.7275 24.5053 2.04351981234553
UTC large
Height (km)
Speed (km/s)
/
Latitude / Longitude
Inclination (degrees)
Orbital Period (minutes)
Azimuth
Elevation
Range (km)
Doppler Factor

Next 0 passes for location: London (51.5072 / 0.1276)

Sorry there are no passes over London.